EW6527 Weather Reports


time (UTC)temp
F
wind
direction
speed
knots
gust
knots
rain 1hr
in
rain 24hr
in
rain mn
in
humidity
%
barometer
mb
20260508023048 57 0 0.0 0.0 0.00 0.00 0.00 85 1025.2
20260508022048 57 0 0.0 0.0 0.00 0.00 0.00 84 1025.2
20260508021048 58 0 0.0 0.0 0.00 0.00 0.00 84 1025.2
20260508020047 58 0 0.0 0.0 0.00 0.00 0.00 84 1025.1
20260508015527 58 0 0.0 0.0 0.00 0.00 0.00 83 1025.2
20260508014050 58 0 0.0 0.0 0.00 0.00 0.00 83 1025.1
20260508013048 58 0 0.0 0.0 0.00 0.00 0.00 83 1025.1
20260508012526 58 0 0.0 0.0 0.00 0.00 0.00 83 1024.8
20260508011518 58 0 0.0 0.0 0.00 0.00 0.00 84 1024.9
20260508010046 58 0 0.0 0.0 0.00 0.00 0.00 84 1024.9
20260508005045 58 0 0.0 0.0 0.00 0.00 0.00 84 1024.9
20260508004045 58 0 0.0 0.0 0.00 0.00 0.00 84 1024.9
20260508003046 58 0 0.0 0.0 0.00 0.00 0.00 84 1025.1
20260508002524 58 0 0.0 0.0 0.00 0.00 0.00 84 1025.2
20260508001043 58 0 0.0 0.0 0.00 0.00 0.00 84 1025.2
20260508000044 58 0 0.0 0.0 0.00 0.00 0.00 85 1025.3
20260507235043 58 0 0.0 0.0 0.00 0.00 0.00 85 1025.4
20260507234044 58 0 0.0 0.0 0.00 0.00 0.00 85 1025.4
20260507233042 57 0 0.0 0.0 0.00 0.00 0.00 85 1025.2
20260507232524 57 0 0.0 0.0 0.00 0.00 0.00 85 1025.2
20260507231518 58 0 0.0 0.0 0.00 0.00 0.00 86 1025.2
20260507230042 58 0 0.0 0.0 0.00 0.00 0.00 86 1025.2
20260507225041 58 0 0.0 0.0 0.00 0.00 0.00 86 1025.4
20260507224041 57 0 0.0 0.0 0.00 0.00 0.00 86 1025.1
20260507223041 57 0 0.0 0.0 0.00 0.00 0.00 85 1025.1
20260507222041 57 0 0.0 0.0 0.00 0.00 0.00 86 1025.3
20260507221039 57 0 0.0 0.0 0.00 0.00 0.00 85 1025.3
20260507220039 57 0 0.0 0.0 0.00 0.00 0.00 85 1025.1
20260507215037 57 0 0.0 0.0 0.00 0.00 0.00 85 1025.4
20260507214037 57 0 0.0 0.0 0.00 0.00 0.00 85 1025.2
20260507213037 57 0 0.0 0.0 0.00 0.00 0.00 84 1024.9
20260507212037 57 0 0.0 0.0 0.00 0.00 0.00 84 1024.7
20260507212007 58 0 0.0 0.0 0.00 0.00 0.00 85 1024.6
20260507210035 57 0 0.0 0.0 0.00 0.00 0.00 85 1024.6
20260507205034 58 0 0.0 0.0 0.00 0.00 0.00 85 1024.6
20260507204035 58 0 0.0 0.0 0.00 0.00 0.00 85 1024.7
20260507203035 58 0 0.0 0.0 0.00 0.00 0.00 84 1024.7
20260507202034 58 0 0.0 0.0 0.00 0.00 0.00 84 1024.6
20260507201034 59 0 0.0 0.0 0.00 0.00 0.00 83 1024.5
20260507200034 60 0 0.0 0.0 0.00 0.00 0.00 81 1024.5
20260507195033 61 0 0.0 0.0 0.00 0.00 0.00 79 1024.4
20260507194033 62 0 0.0 0.0 0.00 0.00 0.00 80 1024.2
20260507193032 62 0 0.0 0.0 0.00 0.00 0.00 80 1024.0
20260507192033 63 0 0.0 0.0 0.00 0.00 0.00 79 1023.5
20260507191030 64 0 0.0 0.0 0.00 0.00 0.00 78 1023.4
20260507190030 64 0 0.0 0.0 0.00 0.00 0.00 77 1023.4
20260507185029 64 0 0.0 0.0 0.00 0.00 0.00 78 1023.0
20260507184029 63 0 0.0 0.0 0.00 0.00 0.00 78 1023.1
20260507183027 63 0 0.0 0.0 0.00 0.00 0.00 77 1023.0
20260507182026 63 0 0.0 0.0 0.00 0.00 0.00 76 1022.9
20260507181025 63 0 0.0 0.0 0.00 0.00 0.00 76 1022.9
20260507180025 64 0 0.0 0.0 0.00 0.00 0.00 75 1022.8
20260507175025 64 0 0.0 0.0 0.00 0.00 0.00 74 1022.6
20260507174025 64 0 0.0 0.0 0.00 0.00 0.00 74 1022.5
20260507173025 63 0 0.0 0.0 0.00 0.00 0.00 75 1022.3
20260507172025 64 0 0.0 0.0 0.00 0.00 0.00 75 1022.2
20260507171024 64 0 0.0 0.0 0.00 0.00 0.00 77 1022.1
20260507170024 64 0 0.0 0.0 0.00 0.00 0.00 77 1022.0
20260507165931 64 0 0.0 0.0 0.00 0.00 0.00 77 1021.9
20260507164024 64 0 0.0 0.0 0.00 0.00 0.00 78 1021.9
20260507163024 64 0 0.0 0.0 0.00 0.00 0.00 78 1022.1
20260507162025 63 0 0.0 0.0 0.00 0.00 0.00 77 1022.2
20260507161025 64 0 0.0 0.0 0.00 0.00 0.00 78 1022.2
20260507160506 64 0 0.0 0.0 0.00 0.00 0.00 78 1022.3
20260507155022 64 0 0.0 0.0 0.00 0.00 0.00 77 1022.4
20260507154023 64 0 0.0 0.0 0.00 0.00 0.00 77 1022.4
20260507153023 65 0 0.0 0.0 0.00 0.00 0.00 75 1022.4
20260507152937 66 0 0.0 0.0 0.00 0.00 0.00 73 1022.4
20260507151022 67 0 0.0 0.0 0.00 0.00 0.00 70 1022.4
20260507150020 68 0 0.0 0.0 0.00 0.00 0.00 66 1022.2
20260507145020 68 0 0.0 0.0 0.00 0.00 0.00 62 1022.2
20260507144020 69 0 0.0 0.0 0.00 0.00 0.00 58 1022.1
20260507143020 69 0 0.0 0.0 0.00 0.00 0.00 56 1021.9
20260507142020 70 0 0.0 0.0 0.00 0.00 0.00 54 1021.9
20260507141020 70 0 0.0 0.0 0.00 0.00 0.00 50 1021.9
20260507140456 70 0 0.0 0.0 0.00 0.00 0.00 48 1021.9
20260507135019 70 0 0.0 0.0 0.00 0.00 0.00 47 1021.8
20260507134018 70 0 0.0 0.0 0.00 0.00 0.00 51 1021.5
20260507133018 71 0 0.0 0.0 0.00 0.00 0.00 55 1021.4
20260507132018 71 0 0.0 0.0 0.00 0.00 0.00 56 1021.5
20260507131454 71 0 0.0 0.0 0.00 0.00 0.00 57 1021.5
20260507130520 71 0 0.0 0.0 0.00 0.00 0.00 56 1021.6
20260507125018 71 0 0.0 0.0 0.00 0.00 0.00 56 1021.8
20260507124500 71 0 0.0 0.0 0.00 0.00 0.00 52 1021.8
20260507123016 71 0 0.0 0.0 0.00 0.00 0.00 54 1021.6
20260507122014 72 0 0.0 0.0 0.00 0.00 0.00 54 1021.6
20260507121012 72 0 0.0 0.0 0.00 0.00 0.00 55 1021.5
20260507120012 72 0 0.0 0.0 0.00 0.00 0.00 55 1021.5
20260507115008 72 0 0.0 0.0 0.00 0.00 0.00 54 1021.4
20260507114447 72 0 0.0 0.0 0.00 0.00 0.00 55 1021.3
20260507113008 72 0 0.0 0.0 0.00 0.00 0.00 54 1021.4
20260507112006 71 0 0.0 0.0 0.00 0.00 0.00 55 1021.3
20260507111005 72 0 0.0 0.0 0.00 0.00 0.00 55 1021.4
20260507110008 72 0 0.0 0.0 0.00 0.00 0.00 56 1021.3
20260507105007 72 0 0.0 0.0 0.00 0.00 0.00 56 1021.2
20260507104006 72 0 0.0 0.0 0.00 0.00 0.00 57 1021.2
20260507103003 71 0 0.0 0.0 0.00 0.00 0.00 57 1021.3
20260507102012 71 0 0.0 0.0 0.00 0.00 0.00 57 1021.3
20260507101007 71 0 0.0 0.0 0.00 0.00 0.00 58 1021.2
20260507100001 70 0 0.0 0.0 0.00 0.00 0.00 57 1021.2
20260507095002 70 0 0.0 0.0 0.00 0.00 0.00 58 1021.1
20260507094455 70 0 0.0 0.0 0.00 0.00 0.00 57 1021.2
20260507093000 71 0 0.0 0.0 0.00 0.00 0.00 57 1021.0
20260507091959 71 0 0.0 0.0 0.00 0.00 0.00 56 1021.0
20260507090959 71 0 0.0 0.0 0.00 0.00 0.00 57 1020.8
20260507085959 71 0 0.0 0.0 0.00 0.00 0.00 57 1020.6
20260507085000 70 0 0.0 0.0 0.00 0.00 0.00 56 1020.4
20260507083959 70 0 0.0 0.0 0.00 0.00 0.00 57 1020.3
20260507082959 70 0 0.0 0.0 0.00 0.00 0.00 57 1020.0
20260507081958 70 0 0.0 0.0 0.00 0.00 0.00 57 1020.0
20260507080957 69 0 0.0 0.0 0.00 0.00 0.00 55 1019.9
20260507075957 69 0 0.0 0.0 0.00 0.00 0.00 56 1019.8
20260507074957 69 0 0.0 0.0 0.00 0.00 0.00 58 1019.8
20260507073957 69 0 0.0 0.0 0.00 0.00 0.00 57 1019.7
20260507072957 69 0 0.0 0.0 0.00 0.00 0.00 58 1019.8
20260507071955 68 0 0.0 0.0 0.00 0.00 0.00 59 1019.6
20260507070954 68 0 0.0 0.0 0.00 0.00 0.00 59 1019.5
20260507065951 68 0 0.0 0.0 0.00 0.00 0.00 60 1019.4
20260507064951 68 0 0.0 0.0 0.00 0.00 0.00 59 1019.5
20260507064437 67 0 0.0 0.0 0.00 0.00 0.00 60 1019.4
20260507062951 67 0 0.0 0.0 0.00 0.00 0.00 60 1019.3
20260507062433 67 0 0.0 0.0 0.00 0.00 0.00 60 1019.3
20260507060951 67 0 0.0 0.0 0.00 0.00 0.00 61 1019.2
20260507055951 66 0 0.0 0.0 0.00 0.00 0.00 61 1019.1
20260507054945 66 0 0.0 0.0 0.00 0.00 0.00 62 1019.0
20260507053945 66 0 0.0 0.0 0.00 0.00 0.00 62 1018.8
20260507052944 65 0 0.0 0.0 0.00 0.00 0.00 63 1018.8
20260507051945 65 0 0.0 0.0 0.00 0.00 0.00 65 1018.8
20260507050945 65 0 0.0 0.0 0.00 0.00 0.00 65 1018.6
20260507045944 65 0 0.0 0.0 0.00 0.00 0.00 66 1018.4
20260507045417 65 0 0.0 0.0 0.00 0.00 0.00 62 1018.3
20260507043936 65 0 0.0 0.0 0.00 0.00 0.00 64 1018.3
20260507042934 65 0 0.0 0.0 0.00 0.00 0.00 64 1018.3
20260507041934 65 0 0.0 0.0 0.00 0.00 0.00 65 1018.3
20260507040934 65 0 0.0 0.0 0.00 0.00 0.00 63 1018.0
20260507035935 65 0 0.0 0.0 0.00 0.00 0.00 62 1017.9
20260507034935 65 0 0.0 0.0 0.00 0.00 0.00 61 1018.0
20260507033934 65 0 0.0 0.0 0.00 0.00 0.00 61 1018.1
20260507032935 65 0 0.0 0.0 0.00 0.00 0.00 60 1017.9
20260507031933 65 0 0.0 0.0 0.00 0.00 0.00 59 1017.9
20260507030934 66 0 0.0 0.0 0.00 0.00 0.00 58 1017.5
20260507025934 66 0 0.0 0.0 0.00 0.00 0.00 58 1017.7
20260507024934 66 0 0.0 0.0 0.00 0.00 0.00 58 1017.7
20260507024412 66 0 0.0 0.0 0.00 0.00 0.00 58 1017.7